Terminal Aerodrome Forecast
Issued by NWS Denver/Boulder, CO

Home | Current Version | Previous Version | Text Only | Print | Product List | Glossary On
Versions: 1 2 3 4 5 6 7 8 9 10 11 12 13 14 15 16 17 18 19 20 21 22 23 24 25 26 27 28 29 30 31 32 33 34 35 36 37 38 39 40 41 42 43
000
FTUS45 KBOU 212337
TAFDEN
TAF
KDEN 212337Z 2200/2306 28012KT P6SM FEW090
     FM220030 35012KT P6SM FEW090
     FM220400 21010KT P6SM SCT220
     FM221500 26010KT P6SM SCT220
     FM222100 33012G20KT P6SM SCT220
     FM230200 23012KT P6SM SCT220=

USA.gov is the U.S. government's official web portal to all federal, state and local government web resources and services.